Location: Gu�tanj
(46.5431°N, 14.9692°E)
Time: 01:54:12
(UTC+00:00)

X-37B - Visible Passes

Search period start: 27 September 2021 00:00
Search period end: 07 October 2021 00:00
Orbit: 381 x 393 km, 45.0° (Epoch: 29 August)

Date Brightness Start Highest point End Pass type
(mag) Time Alt. Az. Time Alt. Az. Time Alt. Az.
27 Sep 0.7 03:21:20 47° SW 03:22:00 63° S 03:25:08 10° E visible
28 Sep 3.1 02:25:37 20° E 02:25:37 20° E 02:26:45 10° E visible
28 Sep 0.7 03:57:54 17° W 04:00:10 64° S 04:03:19 10° ESE visible
29 Sep 0.9 03:02:12 58° SE 03:02:12 58° SE 03:04:58 10° E visible
30 Sep 4.0 02:06:32 10° E 02:06:32 10° E 02:06:36 10° E visible
30 Sep 0.8 03:38:49 32° WSW 03:39:58 53° SSW 03:43:05 10° ESE visible
01 Oct 2.6 02:43:12 26° ESE 02:43:12 26° ESE 02:44:47 10° ESE visible
01 Oct 1.8 04:15:30 12° W 04:18:01 28° SSW 04:20:47 10° SE visible
02 Oct 1.3 03:19:58 39° S 03:19:58 39° S 03:22:44 10° SE visible
03 Oct 3.8 02:24:30 10° ESE 02:24:30 10° ESE 02:24:32 10° ESE visible
03 Oct 2.3 03:56:49 17° SW 03:57:42 19° SSW 03:59:59 10° SSE visible
04 Oct 3.0 03:01:28 15° SSE 03:01:28 15° SSE 03:02:14 10° SE visible
